Location: Newark
(45.8667°N, 9.7333°E)
Time: 12:27:44
(UTC+00:00)

AAUSAT CUBESAT 2 - Visible Passes

Search period start: 18 February 2020 00:00
Search period end: 28 February 2020 00:00
Orbit: 573 x 592 km, 97.5° (Epoch: 17 February)

Date Brightness Start Highest point End Pass type
(mag) Time Alt. Az. Time Alt. Az. Time Alt. Az.
18 Feb ? 04:49:04 10° NE 04:51:54 18° E 04:54:43 10° SE visible
18 Feb ? 17:15:01 10° S 17:19:00 49° W 17:23:00 10° NNW visible
19 Feb ? 04:54:33 10° NE 04:57:39 20° E 05:00:44 10° SE visible
19 Feb ? 17:20:49 10° S 17:24:43 42° W 17:28:39 10° NNW visible
20 Feb ? 05:00:04 10° NE 05:03:24 23° E 05:06:42 10° SSE visible
20 Feb ? 17:26:38 10° SSW 17:30:27 37° W 17:34:16 10° NNW visible
21 Feb ? 05:05:38 10° NE 05:09:09 27° E 05:12:38 10° SSE visible
21 Feb ? 17:32:30 10° SSW 17:36:11 32° W 17:39:53 10° NNW visible
22 Feb ? 05:11:13 10° NNE 05:14:53 31° E 05:18:32 10° SSE visible
22 Feb ? 17:38:23 10° SSW 17:41:54 28° W 17:45:28 10° NW visible
23 Feb ? 05:16:48 10° NNE 05:20:36 35° E 05:24:23 10° SSE visible
23 Feb ? 17:44:18 10° SSW 17:47:39 24° W 17:51:01 10° NW visible
24 Feb ? 05:22:25 10° NNE 05:26:20 41° E 05:30:13 10° S visible
24 Feb ? 17:50:15 10° SW 17:53:23 21° W 17:56:33 10° NW visible
25 Feb ? 05:28:03 10° NNE 05:32:03 47° E 05:36:01 10° S visible
25 Feb ? 17:56:15 10° SW 17:59:08 18° W 18:02:02 10° NW visible
26 Feb ? 05:33:42 10° NNE 05:37:45 55° E 05:41:48 10° S visible
26 Feb ? 18:02:19 10° SW 18:04:53 16° W 18:07:28 10° NW visible
27 Feb ? 18:08:27 10° WSW 18:10:38 14° W 18:12:50 10° WNW visible
